Tracking 29892 objects as of 21-Nov-2024
HD Live streaming from Space Station
objects crossing your sky now

STARLINK-2499

Track STARLINK-2499 now!
10-day predictions
STARLINK-2499 is classified as:


NORAD ID: 48377
Int'l Code: 2021-038AA
Perigee: 553.1 km
Apogee: 555.4 km
Inclination: 53.1 °
Period: 95.6 minutes
Semi major axis: 6925 km
RCS: Unknown
Launch date: May 4, 2021
Source: United States (US)
Launch site: AIR FORCE EASTERN TEST RANGE (AFETR)
Your satellite tracking list
Your tracking list is empty




NASA's NSSDC Master Catalog

Two Line Element Set (TLE):
1 48377U 21038AA  24326.00422148  .00013584  00000-0  92827-3 0  9993
2 48377  53.0549 318.5730 0001661  93.2961 266.8218 15.06431354196357
Source of the keplerian elements: AFSPC